Niagara Falls International Airport Niagara Falls US
ICAO: KIAG
IATA: IAG
Category: Medium
Scheduled Services: No

Elevation: 589 ft
TransAlt. 18000 ft.

Airport Communications:
BUFFALO APP/DEP:126.5
ATIS:120.8
CLNC DEL:119.25
CTAF:118.5
GND:121.7
ANG OPS:26.19
914 AW COMD POST:34.002
PTD:37.22
TWR:118.5
UNICOM:122.95

KIAG Zoom In..

Runways:

(A) RW 06 length 5188 ft width 150 ft
---- / hdg 60

(B) RW 10L length 9829 ft width 150 ft
---- / hdg 100

(C) RW 10R length 3973 ft width 75 ft
---- / hdg 100

(D) RW 24 length 5188 ft width 150 ft
---- / hdg 240

(E) RW 28L length 3973 ft width 75 ft
---- / hdg 280

(F) RW 28R length 9829 ft width 150 ft
ILS 110.10 / hdg 280

Location; KIAG
Day. 19 / Time. 19.53 Zulu
* Altimeter: 30.02
* Temperature: 04° c. 39.2°f.
* Wind from: 310° Speed 17 kn.
Dewpoint: -03° c.
Clouds: Broken 2900 ft.
Clouds: Overcast 4800 ft.

KIAG 191953Z 31017KT BKN029 OVC048 04/M03 A3002 RMK AO2 RAE02 SLP177 P0000 T00391033 $


Wind From 310°
Speed 17 kn.

  YouTube Music Video
 
jpsmedia.com for Web Design  worldairports.se 2018   terms of use